TimeCDT,TemperatureF,Dew PointF,Humidity,Sea Level PressureIn,VisibilityMPH,Wind Direction,Wind SpeedMPH,Gust SpeedMPH,PrecipitationIn,Events,Conditions,WindDirDegrees,DateUTC
12:52 AM,28.9,12.0,49,30.20,10.0,WNW,10.4,-,N/A,,Clear,300,2013-04-02 05:52:00
1:52 AM,28.0,12.9,53,30.21,10.0,WNW,6.9,-,N/A,,Clear,300,2013-04-02 06:52:00
2:52 AM,27.0,12.9,56,30.20,10.0,WNW,8.1,-,N/A,,Clear,290,2013-04-02 07:52:00
3:52 AM,27.0,12.9,56,30.20,10.0,WNW,6.9,-,N/A,,Clear,290,2013-04-02 08:52:00
4:52 AM,26.1,12.9,58,30.20,10.0,WNW,5.8,-,N/A,,Clear,290,2013-04-02 09:52:00
5:52 AM,26.1,12.9,58,30.22,10.0,WNW,5.8,-,N/A,,Clear,290,2013-04-02 10:52:00
6:52 AM,26.1,14.0,60,30.24,10.0,West,6.9,-,N/A,,Clear,280,2013-04-02 11:52:00
7:52 AM,28.0,14.0,56,30.26,10.0,WNW,9.2,-,N/A,,Clear,290,2013-04-02 12:52:00
8:52 AM,30.9,12.9,47,30.26,10.0,WNW,10.4,-,N/A,,Clear,300,2013-04-02 13:52:00
9:52 AM,33.1,12.0,42,30.26,10.0,WNW,10.4,-,N/A,,Clear,290,2013-04-02 14:52:00
10:52 AM,35.1,9.0,34,30.27,10.0,WNW,12.7,-,N/A,,Partly Cloudy,300,2013-04-02 15:52:00
11:52 AM,37.4,8.6,30,30.23,10.0,West,11.5,23.0,N/A,,Partly Cloudy,270,2013-04-02 16:52:00
12:52 PM,37.9,9.0,30,30.25,10.0,NW,13.8,19.6,N/A,,Partly Cloudy,310,2013-04-02 17:52:00
1:52 PM,39.9,7.0,26,30.24,10.0,NW,13.8,-,N/A,,Scattered Clouds,310,2013-04-02 18:52:00
2:52 PM,39.9,9.0,28,30.24,10.0,West,12.7,21.9,N/A,,Mostly Cloudy,270,2013-04-02 19:52:00
3:52 PM,39.9,9.0,28,30.25,10.0,WNW,15.0,19.6,N/A,,Mostly Cloudy,300,2013-04-02 20:52:00
4:52 PM,39.9,8.1,27,30.25,10.0,WNW,11.5,19.6,N/A,,Mostly Cloudy,290,2013-04-02 21:52:00
5:52 PM,39.9,9.0,28,30.26,10.0,NW,12.7,-,N/A,,Mostly Cloudy,320,2013-04-02 22:52:00
6:52 PM,37.0,9.0,31,30.27,10.0,NW,12.7,19.6,N/A,,Scattered Clouds,320,2013-04-02 23:52:00
7:52 PM,36.0,10.0,34,30.28,10.0,NW,10.4,-,N/A,,Partly Cloudy,310,2013-04-03 00:52:00
8:52 PM,35.1,9.0,34,30.30,10.0,NW,5.8,-,N/A,,Clear,310,2013-04-03 01:52:00
9:52 PM,33.1,10.9,40,30.32,10.0,NNW,5.8,-,N/A,,Clear,330,2013-04-03 02:52:00
10:52 PM,32.0,10.0,40,30.32,10.0,NW,3.5,-,N/A,,Clear,310,2013-04-03 03:52:00
11:52 PM,32.0,10.9,42,30.32,10.0,WNW,6.9,-,N/A,,Clear,300,2013-04-03 04:52:00